sat.trackr.live / text

‹ back to catalog

STARLINK-34554

NORAD 64687 · 2025-139Z

PAYLOAD ACTIVE UNKNOWN

§ Identity

Operator
Country
US
Launch date
2025-06-28
Launch site
AFETR
Launch vehicle
Mass (kg)
RCS (m²)

Purposes: comms

External: N2YO · Heavens-Above · Gunter

§ Orbital elements

Epoch: 2026-09-20T08:42:24.979104Z

Period
93.85 min
Inclination
53.1591°
Eccentricity
0.0001517
Mean motion
15.34400565 rev/d
Perigee alt
461.7 km
Apogee alt
463.7 km
Semi-major
6,840.8 km
B*
4.9177e-4
RAAN
298.2452°
Arg perigee
88.6038°
Mean anomaly
271.5139°
Rev number
7,015

§ Raw data

STARLINK-345541 64687U 25139Z   26263.36278911  .00016275  00000+0  49177-3 0  99982 64687  53.1591 298.2452 0001517  88.6038 271.5139 15.34400565 70150

JSON: /api/v1/satellites/64687 · /tle

For live sub-satellite position, see the globe view (requires WebGL).

§ Visibility from observer

Set your observer location to see the next 7 days of passes ≥ 10°. The values pass through the URL so the page stays shareable.

No JS? Fill the form by hand. The geolocation button needs JavaScript.